This is the latest recevied weather packets stored in our database for station/object K5YNC. If no packets are shown the sender has not sent any weather packets the latest 10 day(s).
| Time | Temp. | Humidity | Pressure | Rain* | Wind** | Luminosity | Snow |
|---|---|---|---|---|---|---|---|
| 1777061374 | 31.67° C | 50% | 1005.9 hPa | 0 mm | - | 731 W/m² | - |
| 1777061074 | 31.67° C | 48% | 1006 hPa | 0 mm | - | 718 W/m² | - |
| 1777060770 | 31.67° C | 51% | 1005.9 hPa | 0 mm | - | 720 W/m² | - |
| 1777060470 | 31.11° C | 51% | 1006 hPa | 0 mm | - | 744 W/m² | - |
| 1777060167 | 30.56° C | 53% | 1006.1 hPa | 0 mm | - | 759 W/m² | - |
| 1777059863 | 30.56° C | 51% | 1006.2 hPa | 0 mm | - | 792 W/m² | - |
| 1777059559 | 30.56° C | 50% | 1006.1 hPa | 0 mm | - | 755 W/m² | - |
| 1777059256 | 30.56° C | 55% | 1006.2 hPa | 0 mm | - | 751 W/m² | - |
| 1777058956 | 30.56° C | 53% | 1006.1 hPa | 0 mm | - | 770 W/m² | - |
| 1777058651 | 30° C | 57% | 1006.2 hPa | 0 mm | - | 767 W/m² | - |
| 1777058348 | 30° C | 55% | 1006.1 hPa | 0 mm | - | 790 W/m² | - |
| 1777058045 | 30.56° C | 56% | 1006.3 hPa | 0 mm | - | 782 W/m² | - |
| 1777057745 | 30° C | 55% | 1006.2 hPa | 0 mm | - | 793 W/m² | - |
| 1777057440 | 30° C | 56% | 1006.4 hPa | 0 mm | - | 797 W/m² | - |
| 1777057135 | 29.44° C | 59% | 1006.6 hPa | 0 mm | - | 813 W/m² | - |
| 1777056831 | 28.89° C | 58% | 1006.7 hPa | 0 mm | - | 253 W/m² | - |
| 1777056526 | 29.44° C | 56% | 1006.5 hPa | 0 mm | - | 320 W/m² | - |
| 1777056221 | 29.44° C | 57% | 1006.7 hPa | 0 mm | - | 836 W/m² | - |
| 1777055917 | 29.44° C | 57% | 1006.6 hPa | 0 mm | - | 829 W/m² | - |
| 1777055615 | 29.44° C | 56% | 1006.7 hPa | 0 mm | - | 845 W/m² | - |
| 1777055309 | 29.44° C | 59% | 1007 hPa | 0 mm | - | 845 W/m² | - |
| 1777055008 | 29.44° C | 58% | 1006.7 hPa | 0 mm | - | 824 W/m² | - |
| 1777054705 | 28.89° C | 58% | 1007 hPa | 0 mm | - | 831 W/m² | - |
| 1777054402 | 28.89° C | 59% | 1007.3 hPa | 0 mm | - | 855 W/m² | - |
| 1777054100 | 30° C | 57% | 1007 hPa | 0 mm | - | 863 W/m² | - |
* Rain latest hour (hover to see other rain measurements)
** Current wind speed in m/s (hover to see current wind gust speed)